User: anonymous   Login
Location: Newark
(44.8699°N, 13.8438°E)
Time: 06:43:04
(UTC+00:00)
Language:

Envisat - Orbit

View from above orbital plane
View from above orbital plane
View from above satellite
View from above satellite

Ground track
Ground track

The orbit data is extracted from the following two-line orbital elements,

1 27386U 02009A   19291.66286602 -.00000001  00000-0  13276-4 0  9990
2 27386  98.1451 306.4235 0001186  93.2975  39.7038 14.37960026923721
Epoch (UTC): 18 October 2019 15:54:31
Eccentricity: 0.0001186
inclination: 98.1451°
perigee height: 764 km
apogee height: 766 km
right ascension of ascending node: 306.4235°
argument of perigee: 93.2975°
revolutions per day: 14.37960026
mean anomaly at epoch: 39.7038°
orbit number at epoch: 92372

The dashed part of the orbit path shows where the satellite is in the earth's shadow,  

DLR